Wind_Speed
23 24 22 18 21 22 24 24 22 18 20 20 24 23 22 22 22 23 23 23 22 23 21 21 23 19 17 19 25 23 24 28 28 27 26 24 24 22 22 23 23 23 22
27 28 25 26 26 25 25 26 25 25 24 20 19 28 28 27 26 24 25 26 26 27 26 23 24 25 22 22 24 26 26 28 27 29 28 27 28 26 25 24 23 23 22
32 31 29 30 31 31 29 29 28 28 29 25 22 23 26 31 32 31 30 29 27 29 29 29 28 27 25 26 26 28 29 29 30 30 31 31 30 29 29 28 25 23 22
33 34 33 34 35 34 34 34 34 32 33 32 30 29 29 31 35 35 32 33 30 26 29 30 30 30 29 28 29 30 32 31 31 32 31 31 30 30 30 30 27 25 25
34 36 38 39 40 40 39 37 38 38 36 37 38 36 36 36 39 40 36 35 31 27 31 32 30 29 29 30 30 31 33 35 36 33 33 33 32 32 30 30 29 28 29
39 40 43 44 45 44 43 44 43 44 45 44 44 45 44 43 43 41 37 33 26 22 29 33 33 31 29 27 30 32 32 34 37 38 36 35 36 36 34 31 29 30 31
45 46 46 47 48 50 51 51 52 52 51 51 49 50 49 49 48 45 39 35 29 29 29 31 29 30 34 33 31 32 34 33 35 36 36 36 37 38 36 32 32 31 33
46 48 49 49 49 52 55 55 54 56 57 59 58 55 53 53 52 48 45 41 35 34 34 38 37 38 34 33 37 36 35 35 35 37 37 36 37 39 35 32 29 28 30
46 48 47 49 51 53 53 53 54 57 54 56 60 62 60 58 56 52 48 44 40 37 38 37 37 35 37 35 40 39 37 36 37 40 41 39 39 39 38 32 29 29 30
48 47 48 47 49 48 49 49 49 51 55 55 57 60 58 59 57 55 52 49 44 41 42 38 39 39 48 41 39 44 40 38 40 42 43 43 42 42 38 31 31 30 30
49 48 48 44 43 44 46 46 50 48 48 49 51 48 54 53 53 52 50 47 45 44 43 43 41 41 48 44 36 37 42 43 43 44 43 43 43 40 37 36 34 33 32
51 50 49 46 43 45 46 44 46 44 44 44 44 43 40 46 46 47 48 47 45 46 45 45 43 43 46 46 45 30 36 44 46 47 45 44 44 40 39 39 39 37 34
53 52 51 46 45 45 43 42 43 42 38 37 37 36 35 39 41 40 41 43 41 43 47 49 47 48 48 45 49 45 40 38 48 49 46 45 45 44 43 41 41 38 37
57 53 50 46 46 44 40 38 38 37 38 38 38 35 34 34 35 37 37 34 36 43 48 51 51 51 50 49 50 49 45 44 48 51 49 47 46 43 41 41 40 38 38
52 48 47 46 46 43 43 42 44 46 46 46 43 40 35 32 32 35 34 35 35 38 43 47 48 52 52 52 52 49 47 39 39 53 53 50 48 45 41 42 40 39 39
46 42 41 44 43 43 45 47 48 49 49 49 47 45 40 35 34 35 33 36 36 33 34 44 47 49 49 51 53 52 51 41 41 49 53 53 49 48 46 44 44 43 42
31 34 37 38 41 44 47 49 48 46 45 44 45 46 46 43 40 39 37 35 35 34 32 35 43 49 47 49 55 54 51 46 43 45 50 53 51 54 50 48 46 46 44
31 34 36 38 41 43 45 45 44 44 42 39 40 42 43 45 47 46 42 39 36 36 38 37 37 40 42 50 56 57 55 57 54 49 48 50 52 51 50 46 47 47 45
34 35 38 40 41 41 42 42 40 41 40 38 38 38 39 42 45 51 50 44 42 41 38 41 41 38 41 47 58 60 60 60 55 52 48 47 47 48 45 41 42 44 41
40 41 42 42 41 41 40 40 39 39 39 40 40 40 40 40 41 44 51 52 49 46 44 44 46 42 40 43 54 61 62 62 61 55 53 51 49 47 50 49 49 46 42
41 42 42 40 41 39 37 35 36 37 38 39 39 40 40 40 39 41 43 49 50 49 49 48 47 45 41 41 45 53 60 61 59 55 53 50 48 49 52 52 51 49 48
41 41 38 38 38 37 34 32 34 33 32 33 34 34 36 36 37 39 38 41 48 50 49 49 47 46 43 40 37 42 50 58 58 56 53 52 51 50 50 49 51 51 48
41 39 36 36 34 34 33 31 31 29 29 29 29 30 30 32 34 35 38 38 40 45 47 47 46 44 46 41 38 37 42 52 58 58 58 56 51 51 52 53 49 53 46
38 36 35 32 31 30 29 27 27 28 27 25 25 26 27 29 29 31 33 34 36 39 42 44 43 41 43 40 39 36 37 45 54 57 59 56 52 51 49 42 38 37 35
38 31 28 24 25 26 25 23 25 24 15 19 17 17 19 24 25 28 27 27 31 36 38 39 39 39 40 38 37 36 34 36 44 53 52 53 51 46 41 40 42 43 43
33 27 23 21 24 24 21 19 18 17 16 17 18 19 20 21 23 25 26 27 29 31 34 34 34 36 36 35 34 31 32 31 40 44 45 48 48 43 38 39 40 40 39
Wind_Direction
306 311 312 313 313 312 309 311 305 301 296 302 273 267 265 260 255 259 259 259 258 259 258 256 260 257 248 243 220 227 230 230 237 241 243 244 247 249 251 251 253 257 262
303 303 299 302 303 301 301 300 299 293 294 296 276 261 260 261 259 252 255 257 256 259 261 258 258 260 257 253 245 236 235 236 238 239 241 248 251 251 251 252 255 260 267
292 293 291 292 293 293 291 291 291 288 288 283 273 270 259 257 257 256 253 249 249 256 257 261 259 258 260 261 258 250 241 243 244 240 245 249 251 255 256 256 259 262 271
285 288 287 286 286 285 286 285 283 282 280 278 277 270 264 262 260 258 252 256 254 251 261 260 263 267 266 264 261 257 254 249 245 244 247 253 254 254 255 259 262 268 279
282 283 284 284 283 284 284 281 280 280 278 277 274 272 271 268 264 259 277 271 253 265 262 263 259 257 261 265 264 259 256 255 253 249 250 252 256 258 258 260 266 272 279
284 284 284 285 286 287 286 285 284 281 279 277 274 271 269 269 269 272 276 288 276 289 272 266 267 266 260 256 260 259 256 257 257 256 253 254 256 257 260 263 268 270 270
286 287 289 291 292 291 290 288 286 283 280 277 273 270 268 269 268 268 266 267 263 260 258 263 261 258 266 262 253 254 254 256 257 258 256 255 256 259 260 264 266 264 265
283 283 284 286 287 289 291 290 286 282 279 276 272 269 266 265 266 266 267 268 265 262 259 255 259 258 257 265 259 255 251 253 254 254 254 251 254 255 260 261 260 259 261
280 284 287 289 295 295 291 287 285 283 281 277 271 266 263 262 262 262 262 261 262 261 255 253 251 246 249 261 263 250 250 251 249 251 252 250 252 254 258 257 254 256 261
282 285 288 293 293 291 290 289 286 285 285 284 278 264 257 256 256 258 259 261 259 258 257 255 250 251 249 250 256 247 243 246 249 246 247 247 246 249 252 253 255 257 260
282 285 287 286 284 286 288 290 292 289 285 286 280 265 254 250 250 252 254 255 256 255 254 258 255 247 246 249 251 245 242 242 246 248 245 245 244 246 249 248 250 254 257
282 284 284 283 284 287 286 285 287 289 287 282 278 266 253 249 246 248 251 253 247 249 248 247 251 245 244 245 241 243 239 241 243 247 248 246 244 240 242 247 249 250 254
278 278 278 279 283 288 281 279 280 283 285 283 276 269 263 252 246 243 248 250 249 242 235 239 238 241 242 241 240 242 240 240 236 240 246 245 246 242 241 245 249 256 258
274 274 274 275 283 284 278 275 277 281 286 285 277 271 269 259 243 235 241 244 237 233 234 237 236 235 236 237 241 236 238 242 239 233 235 240 242 243 246 248 251 253 254
269 269 269 273 282 277 277 276 275 277 281 280 276 271 266 259 243 239 238 241 242 241 238 233 236 236 233 229 233 230 233 231 229 230 230 235 239 240 240 244 245 248 253
269 265 268 276 277 275 279 279 280 279 278 276 272 267 260 254 240 239 236 237 242 242 238 233 232 237 236 227 230 232 224 224 223 225 227 232 235 239 237 240 244 246 248
275 275 276 276 277 280 282 282 281 278 276 270 266 263 259 250 242 239 239 235 239 241 238 237 237 240 240 226 221 220 216 215 213 220 223 228 231 235 237 239 241 246 249
280 277 276 279 282 282 281 280 278 276 271 266 264 264 259 253 244 240 237 235 234 238 240 243 245 243 240 230 224 221 215 213 209 215 222 225 229 233 237 237 243 247 248
285 283 281 283 285 285 284 281 278 274 269 263 263 263 262 253 247 242 240 237 236 238 240 242 244 244 237 233 228 227 223 223 218 216 219 226 230 234 232 232 240 248 252
288 286 285 285 285 285 284 282 279 275 270 266 263 260 259 256 250 244 239 239 237 238 239 240 242 243 242 234 234 232 228 227 227 223 223 224 228 233 237 243 247 249 254
292 289 287 285 287 285 284 285 283 277 270 268 266 260 258 255 249 245 240 235 236 236 238 239 239 240 242 237 236 236 233 232 231 229 232 229 230 231 236 239 244 249 251
288 287 285 285 284 284 281 283 287 282 274 270 268 263 257 252 245 243 239 234 232 232 234 236 237 236 239 239 235 235 235 233 233 233 234 235 235 235 239 243 247 249 251
293 291 285 283 280 282 275 280 289 283 277 274 272 262 254 247 242 239 235 234 233 231 231 233 232 235 238 239 236 229 231 231 233 233 234 236 239 241 243 249 252 250 250
291 289 288 284 282 281 280 280 285 281 274 270 268 260 250 244 241 235 235 234 233 231 228 229 231 238 237 239 239 236 233 237 238 237 236 239 239 244 246 249 240 242 251
293 280 282 289 288 286 285 281 286 269 273 257 259 250 256 244 238 233 232 233 233 231 230 230 232 235 235 238 242 240 240 247 247 243 242 242 241 243 249 245 244 243 248
297 280 274 284 294 290 282 279 277 271 267 262 254 248 247 239 232 225 224 226 230 232 231 231 235 234 234 238 243 241 242 250 252 252 253 247 244 246 247 252 244 234 233
Height
5903 5902 5902 5901 5900 5898 5896 5895 5894 5894 5893 5891 5890 5891 5891 5892 5892 5894 5894 5893 5894 5894 5893 5895 5894 5895 5897 5900 5902 5904 5905 5907 5910 5912 5915 5917 5918 5919 5920 5921 5922 5922 5923
5898 5896 5896 5896 5895 5894 5892 5891 5890 5888 5888 5887 5886 5885 5885 5885 5885 5886 5886 5887 5887 5889 5891 5891 5891 5893 5895 5896 5898 5898 5900 5902 5904 5906 5909 5911 5913 5914 5915 5916 5917 5917 5918
5891 5890 5889 5889 5888 5888 5887 5885 5884 5883 5882 5882 5881 5880 5878 5877 5876 5878 5878 5878 5878 5882 5885 5886 5887 5888 5890 5892 5894 5895 5895 5897 5900 5901 5902 5904 5906 5907 5908 5909 5911 5912 5912
5884 5881 5881 5880 5879 5879 5878 5877 5877 5877 5876 5875 5875 5873 5871 5869 5868 5868 5868 5873 5875 5875 5878 5879 5881 5883 5886 5888 5890 5891 5894 5894 5893 5895 5896 5898 5899 5901 5902 5902 5904 5906 5906
5876 5873 5870 5869 5869 5869 5869 5869 5868 5868 5868 5866 5865 5864 5863 5861 5858 5859 5849 5865 5869 5869 5871 5874 5873 5874 5876 5879 5882 5885 5887 5890 5890 5890 5891 5891 5892 5894 5895 5897 5898 5899 5900
5864 5863 5860 5858 5855 5854 5855 5855 5856 5855 5854 5855 5855 5853 5852 5850 5852 5850 5851 5855 5859 5859 5862 5866 5867 5867 5869 5869 5872 5876 5878 5882 5885 5887 5886 5886 5886 5887 5888 5890 5892 5893 5893
5850 5848 5846 5844 5843 5841 5839 5838 5838 5838 5839 5839 5840 5840 5840 5838 5838 5842 5847 5850 5851 5851 5856 5856 5855 5855 5859 5861 5860 5864 5867 5871 5876 5878 5880 5879 5878 5878 5880 5883 5884 5885 5884
5839 5836 5835 5833 5830 5827 5824 5821 5820 5820 5820 5821 5822 5824 5826 5826 5826 5826 5829 5831 5836 5840 5843 5845 5845 5845 5847 5848 5850 5852 5855 5861 5866 5868 5870 5871 5869 5869 5872 5874 5875 5877 5877
5827 5823 5820 5817 5814 5811 5808 5804 5801 5799 5800 5800 5800 5802 5806 5809 5810 5813 5816 5819 5823 5827 5829 5831 5831 5834 5836 5836 5837 5841 5844 5849 5852 5856 5860 5862 5860 5862 5863 5866 5868 5868 5869
5810 5809 5805 5801 5798 5795 5791 5789 5787 5783 5781 5779 5779 5780 5782 5787 5790 5794 5798 5802 5807 5811 5811 5815 5819 5823 5822 5822 5824 5827 5831 5837 5838 5845 5848 5852 5851 5852 5855 5859 5860 5861 5861
5795 5793 5791 5787 5784 5781 5777 5773 5769 5767 5766 5763 5759 5760 5764 5766 5770 5774 5778 5784 5789 5792 5795 5799 5803 5807 5809 5810 5812 5814 5820 5821 5827 5832 5837 5841 5843 5844 5847 5849 5851 5852 5853
5778 5776 5773 5771 5768 5766 5763 5759 5755 5753 5751 5750 5747 5747 5749 5752 5752 5755 5760 5764 5770 5774 5779 5783 5787 5792 5794 5796 5800 5803 5804 5808 5814 5822 5827 5831 5833 5834 5836 5840 5841 5842 5844
5761 5759 5757 5755 5753 5751 5748 5745 5742 5740 5738 5737 5736 5736 5737 5739 5740 5740 5742 5747 5752 5756 5761 5765 5770 5773 5776 5782 5786 5790 5792 5796 5801 5809 5816 5820 5823 5824 5825 5829 5831 5834 5834
5742 5741 5740 5739 5738 5736 5734 5732 5730 5727 5726 5724 5724 5725 5725 5725 5727 5730 5731 5732 5736 5739 5744 5748 5752 5756 5760 5766 5771 5776 5781 5784 5789 5795 5802 5807 5809 5813 5816 5818 5821 5823 5823
5721 5722 5722 5723 5722 5721 5719 5717 5716 5713 5712 5711 5709 5710 5712 5713 5716 5717 5720 5722 5723 5725 5730 5734 5738 5741 5745 5751 5757 5763 5769 5770 5773 5781 5787 5793 5798 5802 5804 5807 5810 5812 5814
5704 5705 5707 5708 5707 5705 5703 5702 5700 5698 5697 5695 5695 5695 5698 5701 5704 5706 5709 5711 5713 5715 5718 5721 5725 5727 5732 5737 5743 5749 5754 5755 5759 5765 5772 5780 5786 5789 5791 5795 5798 5800 5803
5694 5695 5695 5694 5693 5691 5688 5685 5684 5681 5679 5678 5677 5679 5681 5686 5689 5692 5696 5699 5702 5705 5708 5711 5714 5716 5720 5725 5729 5733 5737 5741 5746 5753 5759 5768 5771 5774 5778 5781 5786 5788 5792
5686 5685 5683 5682 5680 5677 5672 5670 5667 5665 5664 5663 5662 5662 5665 5668 5672 5676 5681 5686 5691 5695 5698 5700 5703 5705 5708 5713 5717 5720 5724 5727 5732 5740 5747 5753 5757 5761 5764 5768 5774 5777 5781
5676 5674 5671 5668 5665 5661 5657 5654 5652 5650 5649 5650 5650 5649 5650 5652 5655 5660 5665 5672 5678 5683 5686 5689 5692 5695 5697 5700 5705 5707 5712 5718 5721 5728 5735 5741 5747 5750 5753 5757 5762 5765 5769
5664 5660 5656 5653 5649 5646 5643 5640 5638 5636 5635 5635 5636 5636 5636 5638 5641 5644 5649 5656 5662 5669 5673 5676 5679 5683 5686 5689 5693 5696 5701 5706 5711 5716 5723 5730 5736 5739 5744 5748 5752 5754 5757
5649 5645 5641 5638 5635 5631 5629 5626 5624 5622 5621 5621 5621 5622 5623 5624 5627 5630 5634 5641 5648 5653 5659 5663 5667 5671 5674 5677 5681 5685 5690 5695 5701 5707 5713 5718 5723 5727 5733 5736 5740 5742 5746
5635 5631 5627 5624 5621 5618 5616 5613 5611 5609 5607 5607 5608 5608 5609 5611 5614 5617 5622 5626 5633 5639 5645 5649 5653 5658 5663 5667 5670 5674 5679 5686 5691 5697 5702 5705 5711 5716 5721 5725 5730 5733 5736
5621 5617 5613 5611 5608 5606 5604 5602 5600 5597 5596 5595 5595 5596 5597 5600 5602 5605 5610 5615 5620 5625 5631 5637 5642 5647 5651 5656 5660 5663 5670 5677 5681 5684 5691 5695 5699 5704 5709 5714 5717 5720 5725
5608 5604 5601 5598 5597 5594 5593 5592 5590 5588 5586 5585 5585 5586 5588 5590 5593 5597 5601 5606 5611 5616 5622 5627 5632 5636 5642 5647 5651 5655 5660 5665 5670 5674 5680 5684 5688 5693 5698 5703 5708 5710 5714
5594 5592 5591 5589 5587 5584 5584 5583 5582 5580 5577 5578 5578 5579 5581 5583 5586 5590 5595 5599 5603 5608 5613 5619 5625 5629 5633 5638 5642 5646 5651 5655 5660 5663 5668 5673 5678 5683 5690 5694 5698 5701 5704
5582 5580 5581 5580 5578 5576 5574 5574 5574 5573 5572 5572 5573 5573 5574 5576 5580 5584 5589 5594 5598 5603 5606 5612 5617 5621 5626 5630 5634 5637 5641 5647 5651 5655 5659 5663 5669 5675 5680 5682 5685 5689 5695